Location: B?ogocice
(50.2413°N, 20.2361°E)
Time: 14:32:05
(UTC+00:00)

NOSS 3-2 (A) - Pass Details

Date: 15 June 2024
Orbit: 705 x 1500 km, 63.4° (Epoch: 11 July)

Event Time Altitude Azimuth Distance (km) Brightness Sun altitude
Exits shadow 00:56:26 10° 239° (WSW) 2,339 5.0 -10.4°
Maximum altitude 01:01:45 63° 320° (NW) 988 3.7 -10.0°
Drops below altitude 10° 01:08:12 10° 42° (NE) 2,824 7.5 -9.4°
Sets 01:11:08 0° 45° (NE) 3,910 8.7 -9.2°
